Location: Fauquembergues
(50.6005°N, 2.0987°E)
Time: 21:11:13
(UTC+00:00)

CZ-2D R/B - Pass Details

Date: 14 July 2020
Orbit: 792 x 844 km, 98.7° (Epoch: 14 August)

Event Time Altitude Azimuth Distance (km) Brightness Sun altitude
Rises 00:38:18 0° 23° (NNE) 3,348 6.9 -17.2°
Reaches altitude 10° 00:40:58 10° 34° (NE) 2,420 5.6 -17.1°
Maximum altitude 00:45:34 29° 94° (E) 1,486 3.5 -17.0°
Enters shadow 00:49:08 15° 145° (SE) 2,104 3.9 -16.9°
